Regional Weather Roundup
Issued by NWS

Home | Current Version | Previous Version | Graphics & Text | Print | Product List | Glossary On
Versions: 1 2 3 4 5 6 7 8 9 10 11 12 13 14 15 16 17 18 19 20 21 22 23 24 25 26 27 28 29 30 31 32 33 34 35 36 37 38 39 40 41 42 43 44 45 46 47 48 49 50
000
ASUS43 KTOP 290508
RWRKS

WEATHER ROUNDUP FOR KANSAS
NATIONAL WEATHER SERVICE GOODLAND KS
1200 AM CDT SAT APR 29 2017

NOTE:  "FAIR" INDICATES FEW OR NO CLOUDS BELOW 12,000 FEET WITH NO
SIGNIFICANT WEATHER AND/OR OBSTRUCTIONS TO VISIBILITY.

KSZ001>006-013>018-027>032-041>047-290600-
NORTHWEST KANSAS

CITY           SKY/WX    TMP DP  RH WIND       PRES   REMARKS
GOODLAND       LGT SNOW  34  33  96 N18G26    30.02S FOG     WCI  23
HAYS           CLOUDY    40  38  93 N16G25    29.99F WCI  31
HILL CITY      CLOUDY    39  37  92 NE17      30.05R WCI  30
RUSSELL        CLOUDY    41  38  89 N20G26    29.94F
$$

KSZ061>065-074>080-084>089-290600-
SOUTHWEST KANSAS

CITY           SKY/WX    TMP DP  RH WIND       PRES   REMARKS
DODGE CITY     RAIN      40  39  97 N23G33    29.88F FOG     WCI  30
ELKHART          N/A     43  40  89 E7          N/A
GARDEN CITY    RAIN      39  37  92 NE23G35   29.91S FOG     WCI  28
GREAT BEND     CLOUDY    42  40  92 NE20G25   29.90F
LIBERAL        LGT RAIN  42  41  96 NE16      29.86F
PRATT          CLOUDY    41  39  95 NE22G29   29.83F
$$

KSZ066>073-081>083-090>101-290600-
SOUTHEAST KANSAS

CITY           SKY/WX    TMP DP  RH WIND       PRES   REMARKS
CHANUTE        CLOUDY    55  53  93 N17G25    29.79F FOG
COFFEYVILLE    CLOUDY    63  58  83 N12       29.73F
HUTCHINSON     CLOUDY    44  41  89 N20G31    29.86F
MEDICINE LODGE   N/A     46  43  89 NE20G32   29.79F
NEWTON         CLOUDY    45  44  97 N18       29.87F
PARSONS        CLOUDY    61  58  90 N9        29.76F
WICHITA INTL   CLOUDY    50  45  83 N23G31    29.83F
WICHITA JABRA  CLOUDY    48  45  89 N20G26    29.84F
WICHITA MCCONL CLOUDY    50  45  84 NE23      29.81F
WINFIELD       CLOUDY    55  50  83 N21G36    29.77F
$$

KSZ007>012-019>026-033>040-048>060-102>105-290600-
NORTHEAST KANSAS

CITY           SKY/WX    TMP DP  RH WIND       PRES   REMARKS
CONCORDIA      CLOUDY    41  40  96 NE13      29.99F
EMPORIA        CLOUDY    46  46 100 N14       29.89F
LAWRENCE       CLOUDY    46  46 100 NW10      29.93F
MANHATTAN      CLOUDY    45  41  86 NE12      29.97F
MARYSVILLE     LGT RAIN  41  41 100 NE16G22   30.00F
OLATHE IND     CLOUDY    46  46 100 N16       29.90F FOG
OLATHE EXE     CLOUDY    46  46 100 N16       29.89F
SALINA         CLOUDY    45  40  82 NE13G22   29.95F
TOPEKA BILLARD CLOUDY    46  45  96 N12       29.95F
TOPEKA FORBES  CLOUDY    47  45  93 N10       29.93F
$$




USA.gov is the U.S. government's official web portal to all federal, state and local government web resources and services.